Location: Unspecified
(0.0000°N, 0.0000°E)
Time: 17:03:04
(UTC+00:00)

Hubble Space Telescope - Pass Details

Date: 17 January 2021
Orbit: 536 x 539 km, 28.5° (Epoch: 24 January)

Event Time Altitude Azimuth Distance (km) Brightness Sun altitude
Exits shadow 04:56:55 13° 230° (SW) 1,575 2.9 -17.1°
Maximum altitude 04:58:15 15° 208° (SSW) 1,479 2.9 -16.8°
Drops below altitude 10° 05:00:41 10° 171° (S) 1,779 3.8 -16.2°
Sets 05:03:45 0° 148° (SSE) 2,670 5.2 -15.5°
